Newport Airport, OR

3:35 AM PDT on May 26, 2017 (GMT -0700)
Newport Municipal

Weather History for KONP - May, 2013

Change the Weather History Date:

Thursday, May 23, 2013

  Actual Average Record
Temperature  
Mean Temperature 50 °F -  
Max Temperature 53 °F 57 °F 84 °F (1999)
Min Temperature 46 °F 47 °F 39 °F (2002)
Degree Days  
Heating Degree Days 16    
Moisture  
Dew Point 47 °F    
Average Humidity 94    
Maximum Humidity 100    
Minimum Humidity 82    
Precipitation  
Precipitation 0.60 in - - ()
Sea Level Pressure  
Sea Level Pressure 30.05 in    
Wind  
Wind Speed 11 mph (SSW)    
Max Wind Speed 20 mph    
Max Gust Speed 29 mph    
Visibility 5 miles    
Events Rain    
Averages and records for this station are not official NWS values.
T = Trace of Precipitation, MM = Missing Value Source: NWS Daily Summary

Daily Weather History Graph

Daily Weather History Graph

Search for Another Location

Airport or City:

Trip Planner

Search our weather history database for the weather conditions in past years. The results will help you decide how hot, cold, wet, or windy it might be!

Date:

Astronomy

May. 23, 2013 Rise Set
Actual Time 5:40 AM PDT 8:46 PM PDT
Civil Twilight 5:05 AM PDT 9:21 PM PDT
Nautical Twilight 4:20 AM PDT 10:06 PM PDT
Astronomical Twilight 3:26 AM PDT 11:00 PM PDT
Moon 7:22 PM PDT (5/23) 4:33 AM PDT (5/23)
Length of Visible Light 16h 16m
Length of Day
15h 06m
Waxing Gibbous, 97% of the Moon is Illuminated
May 23
Waxing Gibbous
May 24
Full
May 31
Last Quarter
Jun 8
New
Jun 16
First Quarter

Hourly Weather History & Observations

Time (PDT) Temp. Windchill Dew Point Humidity Pressure Visibility Wind Dir Wind Speed Gust Speed Precip Events Conditions
12:15 AM 46.4 °F 41.9 °F 46.4 °F 100% 30.03 in 4.0 mi SSW 9.2 mph - 0.01 in Rain Rain
12:35 AM 46.4 °F 41.9 °F 46.4 °F 100% 30.03 in 3.0 mi SW 9.2 mph - 0.02 in Rain Rain
12:55 AM 46.4 °F 42.4 °F 46.4 °F 100% 30.03 in 2.5 mi SSW 8.1 mph - 0.03 in Rain Rain
1:15 AM 46.4 °F 42.4 °F 46.4 °F 100% 30.03 in 4.0 mi South 8.1 mph - 0.01 in Rain Rain
1:35 AM 46.4 °F 41.9 °F 46.4 °F 100% 30.03 in 3.0 mi SSW 9.2 mph - 0.06 in Rain Rain
1:55 AM 46.4 °F 41.5 °F 46.4 °F 100% 30.03 in 4.0 mi SSW 10.4 mph - 0.09 in Rain Rain
2:15 AM 46.4 °F 41.5 °F 46.4 °F 100% 30.03 in 3.0 mi SSW 10.4 mph - 0.05 in Rain Rain
2:35 AM 46.4 °F 41.5 °F 46.4 °F 100% 30.03 in 5.0 mi SSW 10.4 mph - 0.07 in Rain Light Rain
2:55 AM 46.4 °F 42.9 °F 46.4 °F 100% 30.03 in 5.0 mi South 6.9 mph - 0.08 in Rain Rain
3:15 AM 46.4 °F 42.4 °F 46.4 °F 100% 30.03 in 4.0 mi SSW 8.1 mph - N/A   Drizzle
3:35 AM 46.4 °F 42.4 °F 46.4 °F 100% 30.03 in 5.0 mi South 8.1 mph - N/A   Overcast
3:55 AM 46.4 °F 42.4 °F 46.4 °F 100% 30.03 in 5.0 mi South 8.1 mph - N/A Rain Light Rain
4:15 AM 46.4 °F 41.9 °F 46.4 °F 100% 30.02 in 4.0 mi South 9.2 mph - 0.01 in Rain Rain
4:35 AM 46.4 °F 43.5 °F 46.4 °F 100% 30.02 in 7.0 mi South 5.8 mph - 0.01 in   Drizzle
4:55 AM 46.4 °F 43.5 °F 46.4 °F 100% 30.03 in 7.0 mi South 5.8 mph - 0.01 in   Overcast
5:15 AM 46.4 °F 41.9 °F 46.4 °F 100% 30.03 in 4.0 mi South 9.2 mph - N/A   Overcast
5:35 AM 46.4 °F 41.9 °F 46.4 °F 100% 30.03 in 5.0 mi South 9.2 mph - N/A   Overcast
5:55 AM 46.4 °F 41.9 °F 46.4 °F 100% 30.03 in 4.0 mi South 9.2 mph - N/A   Light Drizzle
6:15 AM 46.4 °F 41.9 °F 46.4 °F 100% 30.03 in 5.0 mi South 9.2 mph - N/A   Light Drizzle
6:35 AM 46.4 °F 41.9 °F 46.4 °F 100% 30.04 in 5.0 mi South 9.2 mph - N/A   Drizzle
6:55 AM 46.4 °F 41.9 °F 46.4 °F 100% 30.04 in 5.0 mi South 9.2 mph - 0.01 in   Drizzle
7:15 AM 46.4 °F 41.5 °F 46.4 °F 100% 30.04 in 5.0 mi South 10.4 mph - N/A   Light Drizzle
7:35 AM 46.4 °F 41.5 °F 46.4 °F 100% 30.05 in 7.0 mi South 10.4 mph - N/A   Overcast
7:55 AM 46.4 °F 41.9 °F 46.4 °F 100% 30.05 in 10.0 mi South 9.2 mph - N/A   Overcast
8:15 AM 46.4 °F 41.9 °F 46.4 °F 100% 30.05 in 7.0 mi South 9.2 mph 16.1 mph N/A   Overcast
8:35 AM 48.2 °F - 46.4 °F 93% 30.05 in 10.0 mi South 10.4 mph - N/A   Overcast
8:55 AM 50.0 °F - 46.4 °F 87% 30.05 in 10.0 mi South 12.7 mph - N/A   Mostly Cloudy
9:15 AM 48.2 °F - 46.4 °F 93% 30.05 in 4.0 mi South 9.2 mph - N/A Rain Rain
9:35 AM 50.0 °F - 46.4 °F 87% 30.06 in 10.0 mi South 11.5 mph - N/A   Overcast
9:55 AM 50.0 °F - 48.2 °F 94% 30.06 in 4.0 mi SSW 13.8 mph - N/A   Overcast
10:15 AM 50.0 °F - 46.4 °F 87% 30.06 in 4.0 mi South 10.4 mph - N/A   Overcast
10:35 AM 50.0 °F - 46.4 °F 87% 30.06 in 7.0 mi South 13.8 mph 20.7 mph N/A   Overcast
10:55 AM 50.0 °F - 48.2 °F 94% 30.06 in 5.0 mi South 12.7 mph 18.4 mph N/A   Overcast
11:15 AM 50.0 °F - 48.2 °F 94% 30.06 in 7.0 mi South 16.1 mph 23.0 mph N/A   Overcast
11:35 AM 51.8 °F - 48.2 °F 88% 30.06 in 7.0 mi SSW 16.1 mph 25.3 mph N/A   Overcast
11:55 AM 51.8 °F - 48.2 °F 88% 30.06 in 5.0 mi South 13.8 mph 26.5 mph N/A   Overcast
12:15 PM 51.8 °F - 48.2 °F 88% 30.06 in 7.0 mi South 19.6 mph 23.0 mph N/A   Overcast
12:35 PM 53.6 °F - 48.2 °F 82% 30.07 in 7.0 mi SSW 18.4 mph 23.0 mph N/A   Mostly Cloudy
12:55 PM 51.8 °F - 46.4 °F 82% 30.07 in 7.0 mi South 19.6 mph 26.5 mph N/A   Overcast
1:15 PM 51.8 °F - 48.2 °F 88% 30.07 in 7.0 mi SSW 18.4 mph 24.2 mph N/A   Overcast
1:35 PM 51.8 °F - 48.2 °F 88% 30.06 in 7.0 mi SSW 18.4 mph 25.3 mph N/A   Overcast
1:55 PM 53.6 °F - 48.2 °F 82% 30.06 in 5.0 mi SSW 18.4 mph 28.8 mph N/A   Haze
2:15 PM 53.6 °F - 48.2 °F 82% 30.06 in 5.0 mi SSW 17.3 mph 27.6 mph N/A   Haze
2:35 PM 51.8 °F - 48.2 °F 88% 30.06 in 4.0 mi SSW 18.4 mph 23.0 mph N/A Rain Light Rain
2:55 PM 51.8 °F - 48.2 °F 88% 30.07 in 4.0 mi SSW 15.0 mph - N/A Rain Rain
3:15 PM 51.8 °F - 50.0 °F 94% 30.07 in 3.0 mi South 16.1 mph 24.2 mph 0.01 in Rain Light Rain
3:35 PM 51.8 °F - 50.0 °F 94% 30.06 in 3.0 mi SSW 13.8 mph 21.9 mph 0.02 in   Drizzle
3:55 PM 50.0 °F - 48.2 °F 94% 30.06 in 3.0 mi South 15.0 mph - 0.03 in Rain Rain
4:15 PM 50.0 °F - 48.2 °F 94% 30.06 in 4.0 mi SSW 13.8 mph 25.3 mph 0.02 in Rain Rain
4:35 PM 50.0 °F - 48.2 °F 94% 30.06 in 2.5 mi SSW 15.0 mph - 0.06 in Rain Light Rain
4:55 PM 50.0 °F - 48.2 °F 94% 30.06 in 3.0 mi SSW 15.0 mph - 0.08 in Rain Light Rain
5:15 PM 50.0 °F - 48.2 °F 94% 30.06 in 3.0 mi SSW 12.7 mph 19.6 mph 0.01 in Rain Rain
5:35 PM 50.0 °F - 48.2 °F 94% 30.06 in 4.0 mi SSW 12.7 mph - 0.01 in   Drizzle
5:55 PM 50.0 °F - 48.2 °F 94% 30.05 in 3.0 mi SSW 15.0 mph 20.7 mph 0.02 in Rain Light Rain
6:15 PM 50.0 °F - 48.2 °F 94% 30.04 in 7.0 mi SSW 15.0 mph 18.4 mph 0.01 in   Overcast
6:35 PM 50.0 °F - 48.2 °F 94% 30.04 in 4.0 mi SSW 13.8 mph 18.4 mph 0.01 in Rain Light Rain
6:55 PM 50.0 °F - 48.2 °F 94% 30.04 in 5.0 mi SSW 12.7 mph - 0.01 in Rain Light Rain
7:15 PM 50.0 °F - 48.2 °F 94% 30.04 in 5.0 mi SSW 12.7 mph - N/A   Overcast
7:35 PM 50.0 °F - 48.2 °F 94% 30.04 in 5.0 mi SW 11.5 mph - N/A   Overcast
7:55 PM 50.0 °F - 48.2 °F 94% 30.04 in 5.0 mi SW 11.5 mph - N/A Rain Rain
8:15 PM 50.0 °F - 46.4 °F 87% 30.04 in 4.0 mi SW 9.2 mph - N/A   Overcast
8:35 PM 50.0 °F - 48.2 °F 94% 30.04 in 4.0 mi SW 11.5 mph - N/A Rain Light Rain
8:55 PM 50.0 °F - 48.2 °F 94% 30.04 in 7.0 mi SW 6.9 mph - 0.01 in Rain Light Rain
9:15 PM 50.0 °F - 48.2 °F 94% 30.04 in 4.0 mi WSW 10.4 mph - 0.03 in Rain Heavy Rain
9:35 PM 50.0 °F - 48.2 °F 94% 30.05 in 7.0 mi West 12.7 mph - 0.09 in Rain Light Rain
9:55 PM 50.0 °F - 46.4 °F 87% - 5.0 mi WSW 8.1 mph - 0.11 in Rain Rain
10:15 PM 50.0 °F - 46.4 °F 87% 30.05 in 4.0 mi West 9.2 mph - 0.04 in Rain Light Rain
10:35 PM 50.0 °F - 46.4 °F 87% 30.06 in 3.0 mi WSW 6.9 mph - 0.07 in Rain Rain
10:55 PM 48.2 °F - 46.4 °F 93% 30.05 in 5.0 mi West 5.8 mph - 0.09 in Rain Light Rain
11:15 PM 48.2 °F - 46.4 °F 93% 30.06 in 5.0 mi West 10.4 mph - 0.01 in Rain Light Rain
11:35 PM 48.2 °F - 46.4 °F 93% 30.06 in 4.0 mi West 9.2 mph - 0.02 in Rain Rain
11:55 PM 48.2 °F - 46.4 °F 93% 30.06 in 4.0 mi SW 5.8 mph - 0.03 in   Drizzle